EW4346 Weather Reports


time (UTC)temp
F
wind
direction
speed
knots
gust
knots
rain 1hr
in
rain 24hr
in
rain mn
in
humidity
%
barometer
mb
20260507161601 50 196 1.7 4.3 0.00 0.63 0.00 62 1005.4
20260507161101 50 298 1.7 3.5 0.00 0.63 0.00 64 1005.4
20260507160600 51 298 1.7 4.3 0.00 0.63 0.00 64 1005.6
20260507160101 50 306 1.7 5.2 0.00 0.64 0.00 66 1005.7
20260507155832 50 350 1.7 5.2 0.00 0.64 0.00 71 1005.7
20260507155101 49 42 1.7 5.2 0.00 0.64 0.00 68 1005.7
20260507154600 48 311 1.7 5.2 0.00 0.64 0.00 70 1005.8
20260507154058 49 144 0.9 4.3 0.00 0.64 0.00 67 1005.7
20260507153558 50 327 2.6 12.2 0.00 0.65 0.00 66 1005.8
20260507153101 50 297 3.5 12.2 0.00 0.65 0.00 68 1005.8
20260507152554 50 5 2.6 7.8 0.00 0.65 0.00 70 1005.8
20260507152308 49 334 1.7 5.2 0.00 0.65 0.00 66 1005.9
20260507151754 49 207 1.7 5.2 0.00 0.65 0.00 70 1005.8
20260507151029 48 26 0.9 5.2 0.00 0.65 0.00 75 1005.9
20260507150522 47 9 1.7 7.0 0.00 0.65 0.00 78 1006.1
20260507150013 47 117 2.6 7.8 0.00 0.65 0.00 79 1006.2
20260507145506 47 311 2.6 7.8 0.00 0.65 0.00 76 1006.1
20260507145219 48 296 1.7 5.2 0.00 0.65 0.00 78 1006.0
20260507144446 48 178 1.7 5.2 0.00 0.65 0.00 77 1006.0
20260507143940 49 36 2.6 7.0 0.00 0.65 0.00 74 1006.1
20260507143657 50 263 3.5 7.8 0.00 0.65 0.00 72 1006.0
20260507142924 50 294 2.6 7.8 0.00 0.65 0.00 75 1005.8
20260507142643 50 315 2.6 8.7 0.00 0.65 0.00 75 1005.8
20260507141912 50 291 2.6 9.6 0.00 0.65 0.00 76 1005.9
20260507141358 49 350 1.7 9.6 0.00 0.65 0.00 73 1005.8
20260507140852 49 355 1.7 7.8 0.00 0.65 0.00 75 1005.8
20260507140346 48 89 1.7 7.8 0.00 0.65 0.00 79 1005.8
20260507135836 48 20 2.6 12.2 0.00 0.65 0.00 77 1005.8
20260507135547 47 232 2.6 12.2 0.00 0.65 0.00 80 1005.8
20260507134824 47 5 1.7 10.4 0.00 0.65 0.00 79 1005.9
20260507134310 47 323 1.7 10.4 0.00 0.65 0.00 81 1005.9
20260507133804 48 284 1.7 5.2 0.00 0.65 0.00 80 1006.0
20260507133523 48 275 0.9 4.3 0.00 0.65 0.00 81 1006.0
20260507132748 47 281 0.9 4.3 0.00 0.65 0.00 81 1006.1
20260507132242 46 130 0.9 5.2 0.00 0.65 0.00 85 1006.0
20260507131957 45 250 0.9 5.2 0.00 0.65 0.00 83 1006.1
20260507131222 45 27 0.9 4.3 0.00 0.65 0.00 84 1006.2
20260507130716 45 324 0.9 5.2 0.00 0.65 0.00 86 1006.2
20260507130210 45 284 0.9 5.2 0.00 0.65 0.00 84 1006.2
20260507125700 45 207 0.9 3.5 0.00 0.65 0.00 86 1006.3
20260507125421 45 121 1.7 7.0 0.00 0.65 0.00 86 1006.3
20260507124648 45 157 0.9 7.0 0.00 0.65 0.00 88 1006.2
20260507124134 44 150 0.0 2.6 0.00 0.65 0.00 86 1006.0
20260507123628 44 96 0.9 2.6 0.00 0.65 0.00 86 1005.9
20260507123347 44 119 0.9 5.2 0.00 0.65 0.00 85 1005.9
20260507122835 44 126 0.9 5.2 0.00 0.65 0.00 85 1006.0
20260507122106 45 71 1.7 7.0 0.00 0.65 0.00 86 1005.9
20260507121832 45 38 1.7 7.0 0.00 0.65 0.00 85 1006.0
20260507121104 46 49 0.9 5.2 0.00 0.65 0.00 81 1006.0
20260507120829 46 355 1.7 7.0 0.00 0.65 0.00 81 1006.0
20260507120328 46 309 1.7 7.0 0.00 0.65 0.00 83 1006.1
20260507115605 45 355 1.7 6.1 0.00 0.65 0.00 81 1006.1
20260507115104 45 14 0.9 5.2 0.00 0.65 0.00 81 1006.2
20260507114604 45 355 0.9 5.2 0.00 0.65 0.00 82 1006.3
20260507114328 45 334 0.0 4.3 0.00 0.65 0.00 83 1006.2
20260507113322 45 5 0.9 3.5 0.00 0.65 0.00 84 1006.0
20260507112556 44 24 0.0 3.5 0.00 0.65 0.00 84 1006.0
20260507112053 44 5 0.0 1.7 0.00 0.65 0.00 86 1006.1
20260507111554 44 326 0.0 2.6 0.00 0.65 0.00 87 1006.0
20260507111055 43 312 0.9 6.1 0.00 0.65 0.00 87 1006.0
20260507110549 43 335 0.9 6.1 0.00 0.65 0.00 88 1006.0
20260507110043 42 18 0.9 3.5 0.00 0.65 0.00 89 1006.0
20260507105808 42 311 0.9 8.7 0.00 0.65 0.00 90 1006.0
20260507105532 41 0 0.9 8.7 0.00 0.65 0.00 90 1006.1
20260507104804 41 319 0.9 7.0 0.00 0.65 0.00 92 1006.0
20260507104043 40 336 0.9 7.0 0.00 0.65 0.00 93 1006.0
20260507103804 40 329 0.0 3.5 0.00 0.65 0.00 95 1005.8
20260507103303 39 355 0.0 2.6 0.00 0.65 0.00 96 1005.8
20260507102801 39 355 0.0 0.0 0.00 0.65 0.00 96 1005.6
20260507102042 38 355 0.0 0.0 0.00 0.65 0.00 96 1005.6
20260507101543 38 355 0.0 0.0 0.00 0.65 0.00 96 1005.7
20260507101039 38 355 0.0 2.6 0.00 0.65 0.00 96 1005.7
20260507100541 37 355 0.0 2.6 0.00 0.65 0.00 96 1005.8
20260507100300 37 311 0.0 1.7 0.00 0.65 0.00 96 1005.7
20260507095531 37 314 0.0 2.6 0.00 0.65 0.00 96 1005.6
20260507095032 37 344 0.0 2.6 0.00 0.65 0.00 96 1005.6
20260507094755 37 19 0.0 0.0 0.00 0.65 0.00 95 1005.7
20260507094031 37 19 0.0 4.3 0.00 0.65 0.00 95 1005.8
20260507093532 37 19 0.0 4.3 0.00 0.65 0.00 94 1006.0
20260507093032 37 321 0.0 0.0 0.00 0.65 0.00 93 1006.1
20260507092752 38 321 0.0 2.6 0.00 0.65 0.00 93 1006.0
20260507092031 38 321 0.0 2.6 0.00 0.65 0.00 93 1006.0
20260507091533 38 306 0.0 0.0 0.00 0.65 0.00 93 1005.8
20260507091033 38 306 0.0 0.9 0.00 0.65 0.00 94 1005.8
20260507090533 38 306 0.0 0.9 0.00 0.65 0.00 93 1005.9
20260507090033 38 296 0.0 0.0 0.00 0.65 0.00 94 1005.9
20260507090012 38 323 0.0 0.0 0.00 0.65 0.00 95 1005.9
20260507085033 38 304 0.0 0.0 0.00 0.65 0.00 95 1005.9
20260507084530 38 315 0.0 2.6 0.00 0.65 0.00 96 1005.7
20260507084025 38 315 0.0 2.6 0.00 0.65 0.00 96 1005.7
20260507083515 38 325 0.0 0.0 0.00 0.65 0.00 97 1005.7
20260507083009 38 325 0.0 0.9 0.00 0.65 0.00 97 1005.7
20260507082918 38 325 0.0 2.6 0.00 0.65 0.00 97 1005.7
20260507082538 38 325 0.0 2.6 0.00 0.65 0.00 97 1005.7
20260507081443 39 325 0.0 1.7 0.00 0.65 0.00 97 1005.7
20260507081202 39 326 0.0 0.0 0.00 0.65 0.00 97 1005.7
20260507080428 39 327 0.0 0.0 0.00 0.65 0.00 97 1005.7
20260507075922 39 327 0.0 0.0 0.00 0.65 0.00 97 1005.7
20260507075633 39 327 0.0 0.0 0.00 0.65 0.00 97 1005.7
20260507074901 39 327 0.0 0.0 0.00 0.65 0.00 97 1005.5
20260507074355 40 327 0.0 0.0 0.00 0.65 0.00 97 1005.4
20260507074115 40 327 0.0 1.7 0.00 0.65 0.00 97 1005.1
20260507073339 40 327 0.0 4.3 0.00 0.65 0.00 97 1004.9
20260507072833 40 288 0.0 1.7 0.00 0.65 0.00 98 1004.9
20260507072327 40 289 0.0 1.7 0.00 0.65 0.00 98 1004.9
20260507071813 40 288 0.9 2.6 0.00 0.65 0.00 97 1004.8
20260507071534 40 289 0.9 2.6 0.00 0.65 0.00 97 1004.8
20260507071023 40 289 1.7 3.5 0.00 0.65 0.00 97 1004.8
20260507070251 40 292 1.7 3.5 0.00 0.65 0.00 97 1005.0
20260507065745 40 271 0.9 3.5 0.00 0.65 0.00 97 1005.0
20260507065240 40 296 0.9 3.5 0.00 0.65 0.00 97 1005.1
20260507064724 40 284 1.7 4.3 0.00 0.65 0.00 97 1005.0
20260507064219 40 262 1.7 4.3 0.00 0.65 0.00 97 1005.1
20260507063713 40 293 0.9 3.5 0.00 0.65 0.00 97 1005.3
20260507063424 40 289 0.9 2.6 0.00 0.65 0.00 97 1005.4
20260507062657 40 296 0.9 3.5 0.00 0.65 0.00 98 1004.9
20260507062151 40 296 0.9 3.5 0.00 0.65 0.00 98 1004.7
20260507061637 41 285 0.9 4.3 0.00 0.65 0.00 98 1005.1
20260507061131 41 290 0.9 4.3 0.00 0.65 0.00 98 1005.3
20260507060625 41 316 0.9 3.5 0.00 0.65 0.00 98 1005.4
20260507060115 41 284 1.7 4.3 0.00 0.65 0.00 98 1005.4
20260507055610 41 276 0.9 4.3 0.00 0.65 0.00 98 1004.9
20260507055103 41 276 1.7 3.5 0.00 0.65 0.00 98 1005.0
20260507054550 41 315 1.7 6.1 0.00 0.65 0.00 99 1005.1
20260507054043 41 296 1.7 6.1 0.00 0.65 0.00 99 1005.0
20260507053758 41 284 0.9 5.2 0.00 0.65 0.00 99 1005.0
20260507053027 41 281 0.0 2.6 0.00 0.65 0.00 98 1005.0
20260507052750 41 23 0.0 1.7 0.00 0.65 0.00 98 1005.1
20260507052015 41 324 0.9 5.2 0.00 0.65 0.00 98 1005.4
20260507051955 41 13 0.9 5.2 0.00 0.65 0.00 98 1005.3
20260507051220 41 322 0.9 5.2 0.00 0.65 0.00 99 1005.1
20260507050449 41 72 0.9 4.3 0.00 0.65 0.00 99 1005.0
20260507050206 41 199 0.0 5.2 0.00 0.65 0.00 99 1004.8
20260507045433 41 30 0.0 4.3 0.00 0.65 0.00 99 1005.1
20260507044927 41 332 0.0 0.0 0.00 0.65 0.00 99 1005.0
20260507044413 41 332 0.0 0.0 0.00 0.65 0.00 99 1005.0
20260507043908 41 332 0.0 0.0 0.00 0.65 0.00 99 1004.9
20260507043620 41 332 0.0 0.0 0.00 0.65 0.00 99 1004.8
20260507042851 41 332 0.0 4.3 0.00 0.65 0.00 99 1004.6
20260507042345 41 332 0.9 4.3 0.00 0.65 0.00 98 1004.5
20260507041840 42 329 1.7 7.8 0.00 0.65 0.00 98 1004.3
20260507041325 42 319 1.7 7.8 0.00 0.65 0.00 98 1004.4
20260507040820 42 355 0.9 4.3 0.00 0.65 0.00 98 1004.6
20260507040313 42 28 1.7 7.0 0.00 0.65 0.00 98 1004.9
20260507035804 42 328 1.7 7.0 0.01 0.65 0.65 99 1004.9
20260507035258 42 297 0.9 6.1 0.01 0.65 0.65 99 1005.1
20260507034753 42 296 0.9 6.1 0.01 0.65 0.65 99 1005.1
20260507034238 42 311 1.7 4.3 0.01 0.65 0.65 99 1005.1
20260507033733 42 326 0.9 4.3 0.01 0.65 0.65 99 1005.0
20260507033226 42 291 0.9 2.6 0.01 0.65 0.65 99 1004.9
20260507032717 42 294 1.7 7.8 0.01 0.65 0.65 99 1004.9
20260507032210 42 313 1.7 7.8 0.01 0.65 0.65 98 1004.9
20260507031704 42 319 1.7 7.8 0.01 0.65 0.65 98 1004.8
20260507031150 42 315 1.7 7.8 0.01 0.65 0.65 98 1004.7
20260507030644 43 306 2.6 12.2 0.01 0.65 0.65 98 1004.9
20260507030138 42 296 3.5 12.2 0.01 0.65 0.65 98 1004.9
20260507025628 43 19 2.6 10.4 0.01 0.64 0.64 98 1004.9
20260507025122 43 15 2.6 10.4 0.01 0.64 0.64 98 1005.1
20260507024616 43 351 2.6 10.4 0.01 0.64 0.64 98 1005.1
20260507024547 43 323 2.6 9.6 0.01 0.64 0.64 98 1005.0
20260507023556 43 293 3.5 9.6 0.02 0.64 0.64 98 1005.0
20260507023050 43 266 2.6 9.6 0.02 0.64 0.64 98 1005.0
20260507022540 43 292 2.6 9.6 0.02 0.64 0.64 98 1004.9
20260507022034 43 254 2.6 9.6 0.03 0.64 0.64 98 1004.8
20260507021528 44 295 2.6 10.4 0.03 0.64 0.64 98 1004.9
20260507021018 44 292 1.7 10.4 0.04 0.64 0.64 98 1004.8
20260507020512 44 318 1.7 10.4 0.04 0.64 0.64 98 1004.9
20260507020007 45 290 0.9 7.8 0.04 0.64 0.64 98 1004.9
20260507015710 45 281 0.0 5.2 0.03 0.63 0.63 99 1004.8
20260507014946 45 290 0.0 3.5 0.03 0.63 0.63 99 1004.9
20260507014440 46 290 0.0 3.5 0.04 0.63 0.63 99 1004.8
20260507013930 46 315 0.0 3.5 0.04 0.63 0.63 99 1004.7
20260507013425 46 306 0.0 7.0 0.03 0.62 0.62 99 1004.8
20260507012918 47 303 0.0 7.0 0.03 0.62 0.62 99 1004.5
20260507012627 47 304 0.0 2.6 0.02 0.61 0.61 99 1004.4
20260507012139 47 234 0.0 0.0 0.02 0.61 0.61 99 1004.3
20260507010859 48 321 0.0 1.7 0.01 0.60 0.60 99 1004.2
20260507010357 49 311 0.0 0.9 0.01 0.60 0.60 99 1004.2
20260507005858 49 311 0.0 0.0 0.01 0.60 0.60 99 1004.3
20260507005357 49 310 0.0 0.0 0.01 0.60 0.60 99 1004.1
20260507004859 50 301 0.0 0.0 0.01 0.60 0.60 99 1004.4
20260507004619 50 317 0.0 0.0 0.00 0.59 0.59 100 1004.2
20260507003856 50 313 0.0 0.0 0.00 0.59 0.59 100 1004.0
20260507002349 50 279 0.0 1.7 0.00 0.59 0.59 99 1003.9
20260507001848 50 204 0.0 0.0 0.00 0.59 0.59 100 1004.0
20260507001347 50 204 0.0 0.9 0.00 0.59 0.59 100 1003.8
20260507001118 50 204 0.0 2.6 0.00 0.59 0.59 100 1003.5
20260507000343 51 205 0.0 2.6 0.00 0.59 0.59 100 1003.7
20260506235842 51 222 0.0 2.6 0.00 0.59 0.59 99 1003.6
20260506235610 51 11 0.0 1.7 0.00 0.59 0.59 99 1003.5
20260506233838 53 145 0.0 0.9 0.00 0.59 0.59 100 1003.1
20260506233336 53 145 0.0 0.9 0.00 0.59 0.59 100 1003.2
20260506232837 54 145 0.0 0.9 0.00 0.59 0.59 100 1003.1
20260506232335 54 145 0.0 1.7 0.04 0.59 0.59 100 1003.1
20260506231838 54 146 0.0 1.7 0.08 0.59 0.59 100 1003.0
20260506231337 55 175 0.0 1.7 0.10 0.59 0.59 100 1003.1
20260506230837 56 150 0.0 1.7 0.13 0.59 0.59 100 1003.1
20260506230336 56 165 0.0 0.0 0.14 0.59 0.59 100 1003.1
20260506225836 56 112 0.0 0.0 0.14 0.59 0.59 100 1003.0
20260506225336 56 115 0.0 0.0 0.15 0.59 0.59 100 1003.0
20260506224836 56 115 0.0 0.9 0.18 0.59 0.59 100 1002.9
20260506224336 56 115 0.0 0.9 0.18 0.59 0.59 100 1002.8
20260506223835 56 83 0.0 1.7 0.19 0.59 0.59 100 1002.9
20260506223337 56 33 0.0 6.1 0.20 0.59 0.59 100 1002.9
20260506223054 56 355 0.0 6.1 0.22 0.59 0.59 100 1002.9
20260506222336 56 294 0.0 5.2 0.21 0.55 0.56 100 1002.9
20260506221834 56 250 0.9 5.2 0.18 0.51 0.51 100 1002.8
20260506221335 56 132 1.7 6.1 0.17 0.49 0.49 100 1002.5
20260506221309 56 182 0.9 6.1 0.15 0.46 0.46 100 1002.6
20260506220334 56 186 0.9 6.1 0.15 0.46 0.45 100 1002.6
20260506215834 56 136 0.9 6.1 0.15 0.48 0.45 100 1002.6
20260506215336 56 131 0.0 5.2 0.14 0.49 0.44 100 1002.8
20260506214821 56 134 0.9 5.2 0.12 0.47 0.41 100 1002.9
20260506214315 56 143 0.9 7.0 0.12 0.48 0.41 100 1002.8
20260506213809 56 172 1.7 7.0 0.12 0.48 0.40 100 1002.9
20260506213259 56 131 1.7 7.0 0.11 0.48 0.39 100 1002.9
20260506212753 56 169 0.9 5.2 0.08 0.45 0.37 100 1003.0
20260506212734 56 109 1.7 6.1 0.06 0.43 0.34 100 1003.1
20260506211733 56 149 1.7 9.6 0.05 0.42 0.33 100 1003.1
20260506211227 56 167 1.7 8.7 0.05 0.41 0.32 100 1003.0
20260506210944 56 159 1.7 6.1 0.03 0.39 0.31 100 1003.1
20260506210212 56 138 1.7 6.1 0.03 0.39 0.30 100 1003.2
20260506205706 56 155 1.7 6.1 0.03 0.39 0.30 100 1003.2
20260506205159 56 140 1.7 5.2 0.03 0.39 0.30 100 1003.3
20260506204646 56 148 1.7 7.0 0.02 0.38 0.29 100 1003.3
20260506204139 56 132 1.7 7.0 0.02 0.38 0.29 100 1003.4
20260506203633 56 160 1.7 6.1 0.01 0.37 0.28 100 1003.3
20260506203123 56 138 1.7 7.0 0.02 0.37 0.28 100 1003.4
20260506202837 56 189 1.7 7.0 0.02 0.37 0.28 100 1003.5
20260506202111 56 167 1.7 6.1 0.02 0.37 0.28 100 1003.5
20260506201557 56 159 1.7 7.8 0.02 0.36 0.28 100 1003.6
20260506201051 56 143 1.7 7.8 0.02 0.36 0.27 100 1003.7
20260506200544 56 168 1.7 7.8 0.03 0.36 0.27 100 1003.7
20260506200035 56 128 1.7 7.0 0.03 0.36 0.27 100 1003.7
20260506195529 56 163 1.7 6.1 0.04 0.36 0.27 100 1003.8
20260506195023 56 136 1.7 6.1 0.04 0.36 0.27 100 1003.8
20260506194509 56 130 0.9 6.1 0.05 0.36 0.27 100 1003.9
20260506194003 56 154 0.9 6.1 0.06 0.36 0.27 100 1003.9
20260506193457 56 129 0.9 4.3 0.05 0.35 0.26 100 1004.0
20260506192947 56 117 0.9 6.1 0.06 0.35 0.26 100 1004.1
20260506192442 56 135 1.7 7.8 0.07 0.35 0.26 100 1004.1
20260506192156 56 163 1.7 9.6 0.08 0.35 0.26 100 1004.2
20260506191432 56 161 1.7 9.6 0.07 0.34 0.25 100 1004.2
20260506190933 56 147 1.7 7.0 0.08 0.34 0.25 100 1004.2
20260506190433 56 161 1.7 6.1 0.08 0.33 0.24 100 1004.2
20260506190156 56 148 1.7 6.1 0.10 0.33 0.24 100 1004.2
20260506185431 56 153 2.6 7.8 0.10 0.32 0.23 100 1004.2
20260506184931 56 154 2.6 8.7 0.10 0.32 0.23 100 1004.4
20260506184434 56 150 2.6 8.7 0.10 0.31 0.22 100 1004.3
20260506183938 56 160 2.6 7.0 0.10 0.30 0.21 100 1004.3
20260506183431 56 135 1.7 7.0 0.11 0.30 0.21 100 1004.3
20260506182931 56 140 0.9 5.2 0.11 0.29 0.20 100 1004.5
20260506182926 56 157 0.9 5.2 0.11 0.28 0.19 100 1004.5
20260506181927 56 133 0.9 7.0 0.10 0.27 0.18 100 1004.6
20260506181655 56 186 0.9 7.0 0.11 0.27 0.18 100 1004.7
20260506180920 56 146 0.9 6.1 0.11 0.26 0.17 100 1004.8
20260506180414 56 160 0.9 6.1 0.10 0.25 0.16 100 1004.9
20260506175912 56 130 0.9 6.1 0.09 0.23 0.14 99 1005.0
20260506175413 56 159 0.9 6.1 0.08 0.22 0.13 99 1005.0
20260506173910 56 178 0.0 3.5 0.08 0.20 0.11 99 1005.1
20260506173412 56 178 0.0 0.0 0.07 0.19 0.10 99 1005.1
20260506172909 56 178 0.0 0.0 0.06 0.18 0.09 99 1005.3
20260506172409 56 178 0.0 0.0 0.06 0.17 0.09 98 1005.4
20260506172134 56 178 0.0 0.0 0.06 0.17 0.08 98 1005.5
20260506171409 56 178 0.0 0.0 0.05 0.16 0.07 98 1005.5
20260506170909 56 178 0.0 0.0 0.04 0.15 0.07 98 1005.6
20260506170410 56 178 0.0 0.0 0.04 0.15 0.06 98 1005.6
20260506165910 56 178 0.0 0.0 0.04 0.14 0.05 98 1005.7
20260506165640 56 178 0.0 0.0 0.04 0.14 0.05 97 1005.5
20260506165133 56 178 0.0 0.0 0.03 0.13 0.04 98 1005.6
20260506164412 56 178 0.0 0.0 0.03 0.13 0.04 97 1005.7
20260506164133 56 178 0.0 0.0 0.02 0.12 0.03 97 1005.7
20260506163415 56 178 0.0 0.0 0.03 0.12 0.03 97 1005.7
20260506163135 56 178 0.0 0.0 0.03 0.12 0.03 97 1005.8
20260506162408 56 178 0.0 0.0 0.02 0.11 0.03 97 1005.8
20260506162133 56 178 0.0 0.0 0.02 0.11 0.02 97 1005.9